Time,TemperatureF,DewpointF,PressureIn,WindDirection,WindDirectionDegrees,WindSpeedMPH,WindSpeedGustMPH,Humidity,HourlyPrecipIn,Conditions,Clouds,dailyrainin,SoftwareType,DateUTC
2013-02-26 00:00:00,33.0,25.0,29.91,ENE,71,0.0,0.0,72,0.00,CLR,SCT,0.00,WeatherDisplay:10.37,2013-02-26 05:00:00,
2013-02-26 00:05:00,33.0,25.0,29.91,ENE,71,0.0,0.0,72,0.00,CLR,SCT,0.00,WeatherDisplay:10.37,2013-02-26 05:05:00,
2013-02-26 00:10:00,32.9,24.9,29.91,ENE,71,1.3,2.3,72,0.00,CLR,SCT,0.00,WeatherDisplay:10.37,2013-02-26 05:10:00,
2013-02-26 00:15:00,32.7,24.7,29.91,ENE,71,0.0,0.0,72,0.00,CLR,SCT,0.00,WeatherDisplay:10.37,2013-02-26 05:15:00,
2013-02-26 00:20:00,32.6,24.6,29.91,ENE,71,0.2,1.1,72,0.00,CLR,SCT,0.00,WeatherDisplay:10.37,2013-02-26 05:20:00,
2013-02-26 00:25:00,32.4,24.7,29.91,ENE,71,0.6,1.1,73,0.00,CLR,SCT,0.00,WeatherDisplay:10.37,2013-02-26 05:25:00,
2013-02-26 00:30:00,32.1,24.4,29.91,ENE,71,0.0,0.0,73,0.00,CLR,SCT,0.00,WeatherDisplay:10.37,2013-02-26 05:30:00,
2013-02-26 00:35:00,31.9,24.6,29.91,ENE,71,0.0,0.0,74,0.00,CLR,SCT,0.00,WeatherDisplay:10.37,2013-02-26 05:35:00,
2013-02-26 00:40:00,31.8,24.5,29.91,ENE,71,0.8,2.0,74,0.00,CLR,SCT,0.00,WeatherDisplay:10.37,2013-02-26 05:40:00,
2013-02-26 00:45:00,31.5,24.5,29.92,ENE,71,0.2,2.3,75,0.00,CLR,SCT,0.00,WeatherDisplay:10.37,2013-02-26 05:45:00,
2013-02-26 00:50:00,31.3,24.3,29.92,ENE,71,0.0,0.0,75,0.00,CLR,SCT,0.00,WeatherDisplay:10.37,2013-02-26 05:50:00,
2013-02-26 00:55:00,31.3,24.3,29.91,ENE,71,0.0,1.1,75,0.00,CLR,SCT,0.00,WeatherDisplay:10.37,2013-02-26 05:55:00,
2013-02-26 01:00:00,31.1,24.1,29.90,ENE,71,0.1,1.1,75,0.00,CLR,SCT,0.00,WeatherDisplay:10.37,2013-02-26 06:00:00,
2013-02-26 01:05:00,30.9,23.9,29.90,ENE,71,0.0,1.1,75,0.00,CLR,SCT,0.00,WeatherDisplay:10.37,2013-02-26 06:05:00,
2013-02-26 01:10:00,31.0,24.0,29.90,ENE,71,1.0,1.1,75,0.00,CLR,SCT,0.00,WeatherDisplay:10.37,2013-02-26 06:10:00,
2013-02-26 01:15:00,31.0,24.0,29.90,ENE,71,0.5,1.1,75,0.00,CLR,SCT,0.00,WeatherDisplay:10.37,2013-02-26 06:15:00,
2013-02-26 01:20:00,31.0,24.0,29.90,ENE,71,0.0,0.0,75,0.00,CLR,SCT,0.00,WeatherDisplay:10.37,2013-02-26 06:20:00,
2013-02-26 01:25:00,30.9,24.2,29.90,ENE,71,0.0,1.1,76,0.00,CLR,SCT,0.00,WeatherDisplay:10.37,2013-02-26 06:25:00,
2013-02-26 01:30:00,30.8,24.1,29.91,ENE,71,0.0,1.1,76,0.00,CLR,SCT,0.00,WeatherDisplay:10.37,2013-02-26 06:30:00,
2013-02-26 01:35:00,30.7,24.3,29.91,ENE,71,0.0,0.0,77,0.00,CLR,SCT,0.00,WeatherDisplay:10.37,2013-02-26 06:35:00,
2013-02-26 01:40:00,30.7,24.3,29.91,ENE,71,0.3,1.1,77,0.00,CLR,SCT,0.00,WeatherDisplay:10.37,2013-02-26 06:40:00,
2013-02-26 01:45:00,30.8,24.4,29.92,ENE,71,0.0,0.0,77,0.00,CLR,SCT,0.00,WeatherDisplay:10.37,2013-02-26 06:45:00,
2013-02-26 01:50:00,30.9,24.8,29.93,ENE,71,0.0,0.0,78,0.00,CLR,SCT,0.00,WeatherDisplay:10.37,2013-02-26 06:50:00,
2013-02-26 01:55:00,31.0,24.6,29.94,ENE,71,0.0,0.0,77,0.00,CLR,SCT,0.00,WeatherDisplay:10.37,2013-02-26 06:55:00,
2013-02-26 02:00:00,31.0,24.6,29.94,ENE,71,0.0,0.0,77,0.00,CLR,SCT,0.00,WeatherDisplay:10.37,2013-02-26 07:00:00,
2013-02-26 02:05:00,30.8,24.4,29.94,ENE,71,0.0,0.0,77,0.00,CLR,SCT,0.00,WeatherDisplay:10.37,2013-02-26 07:05:00,
2013-02-26 02:10:00,30.6,24.2,29.94,ENE,71,0.0,0.0,77,0.00,CLR,SCT,0.00,WeatherDisplay:10.37,2013-02-26 07:10:00,
2013-02-26 02:15:00,30.4,24.1,29.95,ENE,71,0.0,0.0,77,0.00,CLR,SCT,0.00,WeatherDisplay:10.37,2013-02-26 07:15:00,
2013-02-26 02:20:00,30.3,24.0,29.95,ENE,71,0.0,0.0,77,0.00,CLR,SCT,0.00,WeatherDisplay:10.37,2013-02-26 07:20:00,
2013-02-26 02:25:00,30.1,24.1,29.95,ENE,71,0.0,0.0,78,0.00,CLR,SCT,0.00,WeatherDisplay:10.37,2013-02-26 07:25:00,
2013-02-26 02:30:00,29.9,24.2,29.95,ENE,71,0.0,0.0,79,0.00,CLR,SCT,0.00,WeatherDisplay:10.37,2013-02-26 07:30:00,
2013-02-26 02:35:00,29.7,24.0,29.95,ENE,71,0.0,0.0,79,0.00,CLR,SCT,0.00,WeatherDisplay:10.37,2013-02-26 07:35:00,
2013-02-26 02:40:00,29.6,24.2,29.95,ENE,71,0.0,0.0,80,0.00,CLR,SCT,0.00,WeatherDisplay:10.37,2013-02-26 07:40:00,
2013-02-26 02:45:00,29.4,24.0,29.95,ENE,71,0.0,0.0,80,0.00,CLR,SCT,0.00,WeatherDisplay:10.37,2013-02-26 07:45:00,
2013-02-26 02:50:00,29.4,24.0,29.95,ENE,71,0.0,0.0,80,0.00,CLR,SCT,0.00,WeatherDisplay:10.37,2013-02-26 07:50:00,
2013-02-26 02:55:00,29.4,24.0,29.95,ENE,71,0.0,0.0,80,0.00,CLR,SCT,0.00,WeatherDisplay:10.37,2013-02-26 07:55:00,
2013-02-26 03:00:00,29.3,24.2,29.94,ENE,71,0.0,0.0,81,0.00,CLR,SCT,0.00,WeatherDisplay:10.37,2013-02-26 08:00:00,
2013-02-26 03:05:00,29.3,23.9,29.94,ENE,71,0.0,1.1,80,0.00,CLR,SCT,0.00,WeatherDisplay:10.37,2013-02-26 08:05:00,
2013-02-26 03:10:00,29.3,23.9,29.94,ENE,71,0.0,0.0,80,0.00,CLR,SCT,0.00,WeatherDisplay:10.37,2013-02-26 08:10:00,
2013-02-26 03:15:00,29.3,23.9,29.94,ENE,71,0.0,0.0,80,0.00,CLR,SCT,0.00,WeatherDisplay:10.37,2013-02-26 08:15:00,
2013-02-26 03:20:00,29.4,24.0,29.95,ENE,71,0.0,0.0,80,0.00,CLR,SCT,0.00,WeatherDisplay:10.37,2013-02-26 08:20:00,
2013-02-26 03:25:00,29.7,24.3,29.95,ENE,71,0.0,0.0,80,0.00,CLR,SCT,0.00,WeatherDisplay:10.37,2013-02-26 08:25:00,
2013-02-26 03:30:00,29.9,24.2,29.95,ENE,71,0.0,0.0,79,0.00,CLR,SCT,0.00,WeatherDisplay:10.37,2013-02-26 08:30:00,
2013-02-26 03:35:00,29.9,24.2,29.94,ENE,71,0.1,1.1,79,0.00,CLR,SCT,0.00,WeatherDisplay:10.37,2013-02-26 08:35:00,
2013-02-26 03:40:00,29.8,24.1,29.94,ENE,71,0.0,1.1,79,0.00,CLR,SCT,0.00,WeatherDisplay:10.37,2013-02-26 08:40:00,
2013-02-26 03:45:00,29.8,24.1,29.93,ENE,71,0.0,0.0,79,0.00,CLR,SCT,0.00,WeatherDisplay:10.37,2013-02-26 08:45:00,
2013-02-26 03:50:00,29.9,24.2,29.93,ENE,71,0.0,0.0,79,0.00,CLR,SCT,0.00,WeatherDisplay:10.37,2013-02-26 08:50:00,
2013-02-26 03:55:00,30.2,24.5,29.93,ENE,71,0.0,0.0,79,0.00,CLR,SCT,0.00,WeatherDisplay:10.37,2013-02-26 08:55:00,
2013-02-26 04:00:00,30.3,24.6,29.93,ENE,71,0.0,0.0,79,0.00,CLR,SCT,0.00,WeatherDisplay:10.37,2013-02-26 09:00:00,
2013-02-26 04:05:00,30.1,24.4,29.94,ENE,71,0.0,0.0,79,0.00,CLR,SCT,0.00,WeatherDisplay:10.37,2013-02-26 09:05:00,
2013-02-26 04:10:00,29.9,24.5,29.94,ENE,71,0.0,0.0,80,0.00,CLR,SCT,0.00,WeatherDisplay:10.37,2013-02-26 09:10:00,
2013-02-26 04:15:00,29.7,24.3,29.94,ENE,71,0.0,0.0,80,0.00,CLR,SCT,0.00,WeatherDisplay:10.37,2013-02-26 09:15:00,
2013-02-26 04:20:00,29.6,24.5,29.94,ENE,71,0.0,0.0,81,0.00,CLR,SCT,0.00,WeatherDisplay:10.37,2013-02-26 09:20:00,
2013-02-26 04:25:00,29.6,24.8,29.94,ENE,71,0.0,0.0,82,0.00,CLR,SCT,0.00,WeatherDisplay:10.37,2013-02-26 09:25:00,
2013-02-26 04:30:00,29.8,25.3,29.94,ENE,71,0.0,0.0,83,0.00,CLR,SCT,0.00,WeatherDisplay:10.37,2013-02-26 09:30:00,
2013-02-26 04:35:00,30.1,25.6,29.94,ENE,71,0.0,0.0,83,0.00,CLR,SCT,0.00,WeatherDisplay:10.37,2013-02-26 09:35:00,
2013-02-26 04:40:00,30.4,25.9,29.94,ENE,71,0.0,0.0,83,0.00,CLR,SCT,0.00,WeatherDisplay:10.37,2013-02-26 09:40:00,
2013-02-26 04:45:00,30.5,25.7,29.95,ENE,71,0.0,0.0,82,0.00,CLR,SCT,0.00,WeatherDisplay:10.37,2013-02-26 09:45:00,
2013-02-26 04:50:00,30.6,25.8,29.95,ENE,71,0.0,0.0,82,0.00,CLR,SCT,0.00,WeatherDisplay:10.37,2013-02-26 09:50:00,
2013-02-26 04:55:00,30.5,25.7,29.95,ENE,71,0.0,0.0,82,0.00,CLR,SCT,0.00,WeatherDisplay:10.37,2013-02-26 09:55:00,
2013-02-26 05:00:00,30.5,25.7,29.95,ENE,71,0.0,0.0,82,0.00,CLR,SCT,0.00,WeatherDisplay:10.37,2013-02-26 10:00:00,
2013-02-26 05:05:00,30.4,25.6,29.95,ENE,71,0.0,0.0,82,0.00,CLR,SCT,0.00,WeatherDisplay:10.37,2013-02-26 10:05:00,
2013-02-26 05:10:00,30.3,25.5,29.95,ENE,71,0.0,0.0,82,0.00,CLR,SCT,0.00,WeatherDisplay:10.37,2013-02-26 10:10:00,
2013-02-26 05:15:00,30.3,25.8,29.95,ENE,71,0.0,0.0,83,0.00,CLR,SCT,0.00,WeatherDisplay:10.37,2013-02-26 10:15:00,
2013-02-26 05:20:00,30.2,25.7,29.96,ENE,71,0.0,0.0,83,0.00,CLR,SCT,0.00,WeatherDisplay:10.37,2013-02-26 10:20:00,
2013-02-26 05:25:00,30.1,25.6,29.96,ENE,71,0.0,0.0,83,0.00,CLR,SCT,0.00,WeatherDisplay:10.37,2013-02-26 10:25:00,
2013-02-26 05:30:00,29.9,25.4,29.96,ENE,71,0.0,0.0,83,0.00,CLR,SCT,0.00,WeatherDisplay:10.37,2013-02-26 10:30:00,
2013-02-26 05:35:00,29.7,25.2,29.96,ENE,71,0.0,0.0,83,0.00,CLR,SCT,0.00,WeatherDisplay:10.37,2013-02-26 10:35:00,
2013-02-26 05:40:00,29.5,25.3,29.96,ENE,71,0.0,0.0,84,0.00,CLR,SCT,0.00,WeatherDisplay:10.37,2013-02-26 10:40:00,
2013-02-26 05:45:00,29.4,25.4,29.95,ENE,71,0.0,0.0,85,0.00,CLR,SCT,0.00,WeatherDisplay:10.37,2013-02-26 10:45:00,
2013-02-26 05:50:00,29.6,25.9,29.95,ENE,71,0.0,1.1,86,0.00,CLR,SCT,0.00,WeatherDisplay:10.37,2013-02-26 10:50:00,
2013-02-26 05:55:00,29.9,26.2,29.95,ENE,71,0.0,0.0,86,0.00,CLR,SCT,0.00,WeatherDisplay:10.37,2013-02-26 10:55:00,
2013-02-26 06:00:00,30.1,26.4,29.95,ENE,71,0.1,0.0,86,0.00,CLR,SCT,0.00,WeatherDisplay:10.37,2013-02-26 11:00:00,
2013-02-26 06:05:00,30.3,26.3,29.95,ENE,71,0.0,0.0,85,0.00,CLR,SCT,0.00,WeatherDisplay:10.37,2013-02-26 11:05:00,
2013-02-26 06:10:00,30.5,26.5,29.95,ENE,71,0.0,0.0,85,0.00,CLR,SCT,0.00,WeatherDisplay:10.37,2013-02-26 11:10:00,
2013-02-26 06:15:00,30.6,26.3,29.95,ENE,71,0.0,1.1,84,0.00,CLR,SCT,0.00,WeatherDisplay:10.37,2013-02-26 11:15:00,
2013-02-26 06:20:00,30.7,26.4,29.96,ENE,71,0.0,0.0,84,0.00,CLR,SCT,0.00,WeatherDisplay:10.37,2013-02-26 11:20:00,
2013-02-26 06:25:00,30.7,26.4,29.95,ENE,71,0.0,0.0,84,0.00,CLR,SCT,0.00,WeatherDisplay:10.37,2013-02-26 11:25:00,
2013-02-26 06:30:00,30.8,26.5,29.95,ENE,71,0.0,0.0,84,0.00,CLR,SCT,0.00,WeatherDisplay:10.37,2013-02-26 11:30:00,
2013-02-26 06:35:00,30.8,26.2,29.96,ENE,78,0.7,3.0,83,0.00,CLR,SCT,0.00,WeatherDisplay:10.37,2013-02-26 11:35:00,
2013-02-26 06:40:00,30.8,26.2,29.95,ENE,78,0.0,1.1,83,0.00,CLR,SCT,0.00,WeatherDisplay:10.37,2013-02-26 11:40:00,
2013-02-26 06:45:00,30.7,26.1,29.96,ENE,78,0.4,1.0,83,0.00,CLR,SCT,0.00,WeatherDisplay:10.37,2013-02-26 11:45:00,
2013-02-26 06:50:00,30.7,26.1,29.96,ENE,77,0.0,1.1,83,0.00,CLR,SCT,0.00,WeatherDisplay:10.37,2013-02-26 11:50:00,
2013-02-26 06:55:00,30.7,26.1,29.96,ENE,77,0.0,1.1,83,0.00,CLR,SCT,0.00,WeatherDisplay:10.37,2013-02-26 11:55:00,
2013-02-26 07:00:00,30.7,25.9,29.96,ENE,77,0.0,1.1,82,0.00,CLR,SCT,0.00,WeatherDisplay:10.37,2013-02-26 12:00:00,
2013-02-26 07:05:00,30.8,26.0,29.96,ENE,77,0.0,1.1,82,0.00,CLR,SCT,0.00,WeatherDisplay:10.37,2013-02-26 12:05:00,
2013-02-26 07:10:00,30.9,26.1,29.96,ENE,77,0.3,2.3,82,0.00,CLR,SCT,0.00,WeatherDisplay:10.37,2013-02-26 12:10:00,
2013-02-26 07:15:00,31.0,26.1,29.96,ENE,78,0.1,1.1,82,0.00,CLR,SCT,0.00,WeatherDisplay:10.37,2013-02-26 12:15:00,
2013-02-26 07:20:00,31.1,26.0,29.96,ENE,77,0.0,1.1,81,0.00,CLR,SCT,0.00,WeatherDisplay:10.37,2013-02-26 12:20:00,
2013-02-26 07:25:00,31.3,26.1,29.96,ENE,77,0.0,0.0,81,0.00,CLR,SCT,0.00,WeatherDisplay:10.37,2013-02-26 12:25:00,
2013-02-26 07:30:00,31.6,26.1,29.96,ENE,77,1.3,2.3,80,0.00,CLR,SCT,0.00,WeatherDisplay:10.37,2013-02-26 12:30:00,
2013-02-26 07:35:00,31.9,26.4,29.96,East,84,0.1,1.1,80,0.00,CLR,SCT,0.00,WeatherDisplay:10.37,2013-02-26 12:35:00,
2013-02-26 07:40:00,32.1,26.6,29.96,ENE,57,0.3,2.3,80,0.00,CLR,SCT,0.00,WeatherDisplay:10.37,2013-02-26 12:40:00,
2013-02-26 07:45:00,32.4,26.6,29.96,ENE,57,0.3,1.1,79,0.00,CLR,SCT,0.00,WeatherDisplay:10.37,2013-02-26 12:45:00,
2013-02-26 07:50:00,32.7,26.6,29.96,ENE,76,0.2,2.3,78,0.00,CLR,SCT,0.00,WeatherDisplay:10.37,2013-02-26 12:50:00,
2013-02-26 07:55:00,33.0,26.9,29.97,ENE,76,0.7,1.1,78,0.00,CLR,SCT,0.00,WeatherDisplay:10.37,2013-02-26 12:55:00,
2013-02-26 08:00:00,33.4,27.0,29.97,East,85,1.1,2.3,77,0.00,CLR,SCT,0.00,WeatherDisplay:10.37,2013-02-26 13:00:00,
2013-02-26 08:05:00,34.0,27.2,29.97,ENE,57,0.2,2.3,76,0.00,CLR,SCT,0.00,WeatherDisplay:10.37,2013-02-26 13:05:00,
2013-02-26 08:10:00,34.8,27.4,29.97,ENE,63,0.0,0.0,74,0.00,CLR,SCT,0.00,WeatherDisplay:10.37,2013-02-26 13:10:00,
2013-02-26 08:15:00,35.5,27.7,29.98,ENE,66,0.6,1.1,73,0.00,CLR,SCT,0.00,WeatherDisplay:10.37,2013-02-26 13:15:00,
2013-02-26 08:20:00,35.9,27.7,29.98,NNE,22,2.0,3.5,72,0.00,CLR,SCT,0.00,WeatherDisplay:10.37,2013-02-26 13:20:00,
2013-02-26 08:25:00,35.7,26.9,29.98,NNE,33,2.1,4.0,70,0.00,CLR,SCT,0.00,WeatherDisplay:10.37,2013-02-26 13:25:00,
2013-02-26 08:30:00,36.2,27.4,29.98,NNE,28,1.4,4.0,70,0.00,CLR,SCT,0.00,WeatherDisplay:10.37,2013-02-26 13:30:00,
2013-02-26 08:35:00,36.2,27.0,29.97,East,96,2.3,4.6,69,0.00,CLR,SCT,0.00,WeatherDisplay:10.37,2013-02-26 13:35:00,
2013-02-26 08:40:00,36.5,27.3,29.97,ENE,73,1.1,2.3,69,0.00,CLR,SCT,0.00,WeatherDisplay:10.37,2013-02-26 13:40:00,
2013-02-26 08:45:00,36.5,27.3,29.97,East,87,2.1,4.6,69,0.00,CLR,SCT,0.00,WeatherDisplay:10.37,2013-02-26 13:45:00,
2013-02-26 08:50:00,36.6,27.4,29.96,East,88,1.1,2.3,69,0.00,CLR,SCT,0.00,WeatherDisplay:10.37,2013-02-26 13:50:00,
2013-02-26 08:55:00,36.8,27.2,29.97,ENE,65,1.0,3.5,68,0.00,CLR,SCT,0.00,WeatherDisplay:10.37,2013-02-26 13:55:00,
2013-02-26 09:00:00,36.9,27.3,29.97,SE,124,1.1,2.3,68,0.00,CLR,SCT,0.00,WeatherDisplay:10.37,2013-02-26 14:00:00,
2013-02-26 09:05:00,37.1,27.5,29.97,NE,42,0.4,1.1,68,0.00,CLR,SCT,0.00,WeatherDisplay:10.37,2013-02-26 14:05:00,
2013-02-26 09:10:00,37.5,27.2,29.98,NE,46,2.0,3.5,66,0.00,CLR,SCT,0.00,WeatherDisplay:10.37,2013-02-26 14:10:00,
2013-02-26 09:15:00,37.8,27.1,29.98,NE,49,1.0,2.3,65,0.00,CLR,SCT,0.00,WeatherDisplay:10.37,2013-02-26 14:15:00,
2013-02-26 09:20:00,37.8,27.1,29.99,East,89,1.7,3.5,65,0.00,CLR,SCT,0.00,WeatherDisplay:10.37,2013-02-26 14:20:00,
2013-02-26 09:25:00,37.3,26.6,29.99,East,99,2.9,3.5,65,0.00,CLR,SCT,0.00,WeatherDisplay:10.37,2013-02-26 14:25:00,
2013-02-26 09:30:00,37.4,26.7,29.99,East,94,0.3,2.3,65,0.00,CLR,SCT,0.00,WeatherDisplay:10.37,2013-02-26 14:30:00,
2013-02-26 09:35:00,37.4,27.1,29.99,East,97,2.9,5.0,66,0.00,CLR,SCT,0.00,WeatherDisplay:10.37,2013-02-26 14:35:00,
2013-02-26 09:40:00,37.0,26.7,29.99,East,79,2.3,5.0,66,0.00,CLR,SCT,0.00,WeatherDisplay:10.37,2013-02-26 14:40:00,
2013-02-26 09:45:00,37.1,26.4,29.99,ESE,102,1.3,4.6,65,0.00,CLR,SCT,0.00,WeatherDisplay:10.37,2013-02-26 14:45:00,
2013-02-26 09:50:00,37.7,27.4,29.99,ESE,109,0.0,1.1,66,0.00,CLR,SCT,0.00,WeatherDisplay:10.37,2013-02-26 14:50:00,
2013-02-26 09:55:00,38.6,27.1,29.98,SE,128,2.4,5.0,63,0.00,CLR,SCT,0.00,WeatherDisplay:10.37,2013-02-26 14:55:00,
2013-02-26 10:00:00,38.3,26.4,29.98,SE,141,0.9,2.3,62,0.00,CLR,SCT,0.00,WeatherDisplay:10.37,2013-02-26 15:00:00,
2013-02-26 10:05:00,38.7,26.4,29.98,ESE,105,0.4,4.6,61,0.00,CLR,SCT,0.00,WeatherDisplay:10.37,2013-02-26 15:05:00,
2013-02-26 10:10:00,38.9,26.2,29.98,ESE,119,5.0,5.8,60,0.00,CLR,SCT,0.00,WeatherDisplay:10.37,2013-02-26 15:10:00,
2013-02-26 10:15:00,38.3,25.2,29.98,East,90,3.0,8.1,59,0.00,CLR,SCT,0.00,WeatherDisplay:10.37,2013-02-26 15:15:00,
2013-02-26 10:20:00,38.3,26.0,29.98,ESE,119,2.7,4.6,61,0.00,CLR,SCT,0.00,WeatherDisplay:10.37,2013-02-26 15:20:00,
2013-02-26 10:25:00,38.6,25.5,29.98,East,91,3.1,5.8,59,0.00,CLR,SCT,0.00,WeatherDisplay:10.37,2013-02-26 15:25:00,
2013-02-26 10:30:00,38.7,25.6,29.98,NE,51,4.4,6.9,59,0.00,CLR,SCT,0.00,WeatherDisplay:10.37,2013-02-26 15:30:00,
2013-02-26 10:35:00,38.6,25.5,29.98,SE,126,2.0,3.5,59,0.00,CLR,SCT,0.00,WeatherDisplay:10.37,2013-02-26 15:35:00,
2013-02-26 10:40:00,38.4,25.7,29.98,East,95,1.8,4.0,60,0.00,CLR,SCT,0.00,WeatherDisplay:10.37,2013-02-26 15:40:00,
2013-02-26 10:45:00,38.5,25.8,29.97,East,86,0.1,2.3,60,0.00,CLR,SCT,0.00,WeatherDisplay:10.37,2013-02-26 15:45:00,
2013-02-26 10:50:00,38.5,25.4,29.98,ESE,120,2.0,3.5,59,0.00,CLR,SCT,0.00,WeatherDisplay:10.37,2013-02-26 15:50:00,
2013-02-26 10:55:00,38.4,25.3,29.97,SE,126,2.5,5.8,59,0.00,CLR,SCT,0.00,WeatherDisplay:10.37,2013-02-26 15:55:00,
2013-02-26 11:00:00,38.4,25.7,29.97,East,88,3.2,5.8,60,0.00,CLR,SCT,0.00,WeatherDisplay:10.37,2013-02-26 16:00:00,
2013-02-26 11:05:00,38.9,25.8,29.98,East,99,0.1,1.1,59,0.00,CLR,SCT,0.00,WeatherDisplay:10.37,2013-02-26 16:05:00,
2013-02-26 11:10:00,39.6,26.0,29.98,ENE,60,3.9,6.9,58,0.00,CLR,SCT,0.00,WeatherDisplay:10.37,2013-02-26 16:10:00,
2013-02-26 11:15:00,39.5,25.9,29.97,East,92,0.8,5.8,58,0.00,CLR,SCT,0.00,WeatherDisplay:10.37,2013-02-26 16:15:00,
2013-02-26 11:20:00,39.7,25.7,29.97,ESE,109,2.0,3.5,57,0.00,CLR,SCT,0.00,WeatherDisplay:10.37,2013-02-26 16:20:00,
2013-02-26 11:25:00,39.6,25.6,29.97,ESE,107,1.8,4.6,57,0.00,CLR,SCT,0.00,WeatherDisplay:10.37,2013-02-26 16:25:00,
2013-02-26 11:30:00,39.8,25.8,29.97,NNW,348,4.3,5.8,57,0.00,CLR,SCT,0.00,WeatherDisplay:10.37,2013-02-26 16:30:00,
2013-02-26 11:35:00,40.1,26.1,29.97,SE,134,2.5,4.0,57,0.00,CLR,SCT,0.00,WeatherDisplay:10.37,2013-02-26 16:35:00,
2013-02-26 11:40:00,39.8,24.5,29.97,ESE,122,3.0,5.8,54,0.00,CLR,SCT,0.00,WeatherDisplay:10.37,2013-02-26 16:40:00,
2013-02-26 11:45:00,39.9,25.5,29.97,East,93,4.9,6.9,56,0.00,CLR,SCT,0.00,WeatherDisplay:10.37,2013-02-26 16:45:00,
2013-02-26 11:50:00,39.7,24.8,29.97,ESE,119,2.6,5.0,55,0.00,CLR,SCT,0.00,WeatherDisplay:10.37,2013-02-26 16:50:00,
2013-02-26 11:55:00,39.5,24.7,29.97,ESE,123,3.6,5.0,55,0.00,CLR,SCT,0.00,WeatherDisplay:10.37,2013-02-26 16:55:00,
2013-02-26 12:00:00,40.0,26.0,29.96,SE,142,3.0,6.0,57,0.00,CLR,SCT,0.00,WeatherDisplay:10.37,2013-02-26 17:00:00,
2013-02-26 12:05:00,40.0,25.1,29.96,SE,133,2.3,5.8,55,0.00,CLR,SCT,0.00,WeatherDisplay:10.37,2013-02-26 17:05:00,
2013-02-26 12:10:00,39.6,25.2,29.96,ESE,109,4.4,6.0,56,0.00,CLR,SCT,0.00,WeatherDisplay:10.37,2013-02-26 17:10:00,
2013-02-26 12:15:00,39.5,25.5,29.96,SE,137,3.2,4.6,57,0.00,CLR,SCT,0.00,WeatherDisplay:10.37,2013-02-26 17:15:00,
2013-02-26 12:20:00,39.7,25.7,29.97,South,187,4.2,6.9,57,0.00,CLR,SCT,0.00,WeatherDisplay:10.37,2013-02-26 17:20:00,
2013-02-26 12:25:00,39.3,25.7,29.96,ESE,117,2.3,3.5,58,0.00,CLR,SCT,0.00,WeatherDisplay:10.37,2013-02-26 17:25:00,
2013-02-26 12:30:00,39.2,25.6,29.96,ESE,104,1.1,3.5,58,0.00,CLR,SCT,0.00,WeatherDisplay:10.37,2013-02-26 17:30:00,
2013-02-26 12:35:00,39.2,25.6,29.96,NE,53,5.0,5.8,58,0.00,CLR,SCT,0.00,WeatherDisplay:10.37,2013-02-26 17:35:00,
2013-02-26 12:40:00,39.2,25.2,29.96,SE,135,1.8,4.6,57,0.00,CLR,SCT,0.00,WeatherDisplay:10.37,2013-02-26 17:40:00,
2013-02-26 12:45:00,39.4,25.8,29.95,ESE,114,2.3,5.8,58,0.00,CLR,SCT,0.00,WeatherDisplay:10.37,2013-02-26 17:45:00,
2013-02-26 12:50:00,39.8,26.2,29.95,SE,129,3.8,5.0,58,0.00,CLR,SCT,0.00,WeatherDisplay:10.37,2013-02-26 17:50:00,
2013-02-26 12:55:00,39.6,25.6,29.95,ENE,72,1.2,2.3,57,0.00,CLR,SCT,0.00,WeatherDisplay:10.37,2013-02-26 17:55:00,
2013-02-26 13:00:00,39.8,26.6,29.94,ENE,65,2.6,5.8,59,0.00,CLR,SCT,0.00,WeatherDisplay:10.37,2013-02-26 18:00:00,
2013-02-26 13:05:00,40.0,26.4,29.94,ESE,115,3.0,4.6,58,0.00,CLR,SCT,0.00,WeatherDisplay:10.37,2013-02-26 18:05:00,
2013-02-26 13:10:00,40.0,26.0,29.93,NE,49,6.0,7.0,57,0.00,CLR,SCT,0.00,WeatherDisplay:10.37,2013-02-26 18:10:00,
2013-02-26 13:15:00,40.1,26.5,29.93,ENE,61,0.5,1.1,58,0.00,CLR,SCT,0.00,WeatherDisplay:10.37,2013-02-26 18:15:00,
2013-02-26 13:20:00,39.7,26.1,29.93,SE,127,2.0,5.0,58,0.00,CLR,SCT,0.00,WeatherDisplay:10.37,2013-02-26 18:20:00,
2013-02-26 13:25:00,39.7,26.5,29.93,East,101,0.6,1.1,59,0.00,CLR,SCT,0.00,WeatherDisplay:10.37,2013-02-26 18:25:00,
2013-02-26 13:30:00,39.9,25.9,29.93,SSE,162,1.2,2.3,57,0.00,CLR,SCT,0.00,WeatherDisplay:10.37,2013-02-26 18:30:00,
2013-02-26 13:35:00,39.2,25.2,29.93,SE,141,5.4,6.9,57,0.00,CLR,SCT,0.00,WeatherDisplay:10.37,2013-02-26 18:35:00,
2013-02-26 13:40:00,39.0,25.5,29.93,ENE,78,4.7,5.8,58,0.00,CLR,SCT,0.00,WeatherDisplay:10.37,2013-02-26 18:40:00,
2013-02-26 13:45:00,39.2,25.6,29.92,SE,133,3.8,6.0,58,0.00,CLR,SCT,0.00,WeatherDisplay:10.37,2013-02-26 18:45:00,
2013-02-26 13:50:00,39.2,26.1,29.92,SE,132,3.9,5.0,59,0.00,CLR,SCT,0.00,WeatherDisplay:10.37,2013-02-26 18:50:00,
2013-02-26 13:55:00,39.2,26.1,29.91,SE,126,2.5,4.6,59,0.00,CLR,SCT,0.00,WeatherDisplay:10.37,2013-02-26 18:55:00,
2013-02-26 14:00:00,39.1,26.0,29.91,SE,124,3.5,5.0,59,0.00,CLR,SCT,0.00,WeatherDisplay:10.37,2013-02-26 19:00:00,
2013-02-26 14:05:00,38.8,26.1,29.91,SE,135,1.8,3.5,60,0.00,CLR,SCT,0.00,WeatherDisplay:10.37,2013-02-26 19:05:00,
2013-02-26 14:10:00,38.8,26.5,29.91,ESE,110,1.0,4.6,61,0.00,CLR,SCT,0.00,WeatherDisplay:10.37,2013-02-26 19:10:00,
2013-02-26 14:15:00,38.6,26.3,29.91,ESE,103,5.2,7.0,61,0.00,CLR,SCT,0.00,WeatherDisplay:10.37,2013-02-26 19:15:00,
2013-02-26 14:20:00,38.5,26.2,29.91,SE,133,4.6,6.0,61,0.00,CLR,SCT,0.00,WeatherDisplay:10.37,2013-02-26 19:20:00,
2013-02-26 14:25:00,38.3,26.4,29.91,ESE,123,4.5,6.9,62,0.00,CLR,SCT,0.00,WeatherDisplay:10.37,2013-02-26 19:25:00,
2013-02-26 14:30:00,38.1,26.2,29.91,ESE,119,2.7,5.0,62,0.00,CLR,SCT,0.00,WeatherDisplay:10.37,2013-02-26 19:30:00,
2013-02-26 14:35:00,38.1,26.6,29.91,ESE,117,1.6,3.5,63,0.00,CLR,SCT,0.00,WeatherDisplay:10.37,2013-02-26 19:35:00,
2013-02-26 14:40:00,38.2,26.3,29.91,NE,43,3.4,8.1,62,0.00,CLR,SCT,0.00,WeatherDisplay:10.37,2013-02-26 19:40:00,
2013-02-26 14:45:00,38.2,26.3,29.92,East,96,3.1,6.9,62,0.00,CLR,SCT,0.00,WeatherDisplay:10.37,2013-02-26 19:45:00,
2013-02-26 14:50:00,38.1,26.6,29.92,ESE,118,3.1,5.8,63,0.00,CLR,SCT,0.00,WeatherDisplay:10.37,2013-02-26 19:50:00,
2013-02-26 14:55:00,37.9,26.4,29.92,SE,132,3.3,5.0,63,0.00,CLR,SCT,0.00,WeatherDisplay:10.37,2013-02-26 19:55:00,
2013-02-26 15:00:00,37.8,26.7,29.92,SSE,149,3.4,5.0,64,0.00,CLR,SCT,0.00,WeatherDisplay:10.37,2013-02-26 20:00:00,
2013-02-26 15:05:00,37.7,26.6,29.91,ESE,123,2.3,4.6,64,0.00,CLR,SCT,0.00,WeatherDisplay:10.37,2013-02-26 20:05:00,
2013-02-26 15:10:00,37.6,27.3,29.91,SE,140,2.9,6.0,66,0.00,CLR,SCT,0.00,WeatherDisplay:10.37,2013-02-26 20:10:00,
2013-02-26 15:15:00,37.4,27.1,29.91,SE,128,2.8,5.8,66,0.00,CLR,SCT,0.00,WeatherDisplay:10.37,2013-02-26 20:15:00,
2013-02-26 15:20:00,37.2,26.9,29.91,SSE,154,3.9,5.8,66,0.00,CLR,SCT,0.00,WeatherDisplay:10.37,2013-02-26 20:20:00,
2013-02-26 15:25:00,37.2,26.9,29.92,SE,142,3.2,6.9,66,0.00,CLR,SCT,0.00,WeatherDisplay:10.37,2013-02-26 20:25:00,
2013-02-26 15:30:00,37.0,26.7,29.91,SE,136,3.7,5.8,66,0.00,CLR,SCT,0.00,WeatherDisplay:10.37,2013-02-26 20:30:00,
2013-02-26 15:35:00,37.0,27.1,29.91,SE,130,2.7,6.9,67,0.00,CLR,SCT,0.00,WeatherDisplay:10.37,2013-02-26 20:35:00,
2013-02-26 15:40:00,36.9,27.3,29.91,SE,146,3.6,7.0,68,0.00,CLR,SCT,0.00,WeatherDisplay:10.37,2013-02-26 20:40:00,
2013-02-26 15:45:00,36.9,27.0,29.90,ESE,113,2.0,5.0,67,0.00,CLR,SCT,0.00,WeatherDisplay:10.37,2013-02-26 20:45:00,
2013-02-26 15:50:00,36.9,27.3,29.90,ESE,122,1.8,2.3,68,0.00,CLR,SCT,0.00,WeatherDisplay:10.37,2013-02-26 20:50:00,
2013-02-26 15:55:00,36.8,27.2,29.90,ESE,109,3.1,4.6,68,0.00,CLR,SCT,0.00,WeatherDisplay:10.37,2013-02-26 20:55:00,
2013-02-26 16:00:00,36.8,27.2,29.90,ESE,123,3.3,5.8,68,0.00,CLR,SCT,0.00,WeatherDisplay:10.37,2013-02-26 21:00:00,
2013-02-26 16:05:00,36.7,27.1,29.89,ESE,109,4.1,8.1,68,0.00,CLR,SCT,0.00,WeatherDisplay:10.37,2013-02-26 21:05:00,
2013-02-26 16:10:00,36.7,27.5,29.89,ENE,69,1.6,3.5,69,0.00,CLR,SCT,0.00,WeatherDisplay:10.37,2013-02-26 21:10:00,
2013-02-26 16:15:00,36.7,27.5,29.89,ESE,103,4.0,6.9,69,0.00,CLR,SCT,0.00,WeatherDisplay:10.37,2013-02-26 21:15:00,
2013-02-26 16:20:00,36.5,27.6,29.89,SE,144,3.3,6.0,70,0.00,CLR,SCT,0.00,WeatherDisplay:10.37,2013-02-26 21:20:00,
2013-02-26 16:25:00,36.4,27.5,29.89,ENE,72,2.2,3.5,70,0.00,CLR,SCT,0.00,WeatherDisplay:10.37,2013-02-26 21:25:00,
2013-02-26 16:30:00,36.4,27.9,29.88,ESE,123,3.4,4.6,71,0.00,CLR,SCT,0.00,WeatherDisplay:10.37,2013-02-26 21:30:00,
2013-02-26 16:35:00,36.2,28.0,29.88,ESE,105,1.5,4.6,72,0.00,CLR,SCT,0.00,WeatherDisplay:10.37,2013-02-26 21:35:00,
2013-02-26 16:40:00,36.0,28.2,29.88,East,92,1.6,2.3,73,0.00,CLR,SCT,0.00,WeatherDisplay:10.37,2013-02-26 21:40:00,
2013-02-26 16:45:00,35.9,28.1,29.88,ESE,104,2.1,3.5,73,0.00,CLR,SCT,0.00,WeatherDisplay:10.37,2013-02-26 21:45:00,
2013-02-26 16:50:00,35.9,28.4,29.88,East,101,2.9,5.8,74,0.00,CLR,SCT,0.00,WeatherDisplay:10.37,2013-02-26 21:50:00,
2013-02-26 16:55:00,35.7,28.6,29.88,ESE,123,3.5,4.6,75,0.00,CLR,SCT,0.00,WeatherDisplay:10.37,2013-02-26 21:55:00,
2013-02-26 17:00:00,35.6,28.5,29.88,SE,124,2.0,4.0,75,0.00,CLR,SCT,0.00,WeatherDisplay:10.37,2013-02-26 22:00:00,
2013-02-26 17:05:00,35.5,28.7,29.88,ESE,107,1.8,3.5,76,0.00,CLR,SCT,0.00,WeatherDisplay:10.37,2013-02-26 22:05:00,
2013-02-26 17:10:00,35.4,28.9,29.88,ESE,123,2.7,4.6,77,0.00,CLR,SCT,0.00,WeatherDisplay:10.37,2013-02-26 22:10:00,
2013-02-26 17:15:00,35.4,29.2,29.88,SE,144,3.9,5.8,78,0.00,CLR,SCT,0.00,WeatherDisplay:10.37,2013-02-26 22:15:00,
2013-02-26 17:20:00,35.3,29.4,29.88,SSE,155,4.7,6.9,79,0.00,CLR,SCT,0.00,WeatherDisplay:10.37,2013-02-26 22:20:00,
2013-02-26 17:25:00,35.2,29.6,29.88,ESE,116,2.6,3.5,80,0.00,CLR,SCT,0.00,WeatherDisplay:10.37,2013-02-26 22:25:00,
2013-02-26 17:30:00,35.1,29.6,29.87,SSE,153,2.7,4.6,80,0.00,CLR,SCT,0.00,WeatherDisplay:10.37,2013-02-26 22:30:00,
2013-02-26 17:35:00,35.0,29.5,29.87,ENE,65,3.0,5.0,80,0.00,CLR,SCT,0.00,WeatherDisplay:10.37,2013-02-26 22:35:00,
2013-02-26 17:40:00,34.9,29.0,29.86,NNE,24,4.2,5.0,79,0.00,CLR,SCT,0.00,WeatherDisplay:10.37,2013-02-26 22:40:00,
2013-02-26 17:45:00,34.8,28.6,29.86,NE,36,6.0,10.4,78,0.00,CLR,SCT,0.00,WeatherDisplay:10.37,2013-02-26 22:45:00,
2013-02-26 17:50:00,34.8,28.6,29.86,East,98,3.6,6.9,78,0.00,CLR,SCT,0.00,WeatherDisplay:10.37,2013-02-26 22:50:00,
2013-02-26 17:55:00,34.8,28.6,29.85,East,92,2.1,4.0,78,0.00,CLR,SCT,0.00,WeatherDisplay:10.37,2013-02-26 22:55:00,
2013-02-26 18:00:00,34.6,28.4,29.85,East,90,4.7,6.9,78,0.00,CLR,SCT,0.00,WeatherDisplay:10.37,2013-02-26 23:00:00,
2013-02-26 18:05:00,34.6,28.4,29.85,East,83,3.2,9.2,78,0.00,CLR,SCT,0.00,WeatherDisplay:10.37,2013-02-26 23:05:00,
2013-02-26 18:10:00,34.5,28.3,29.85,SE,134,4.5,5.8,78,0.00,CLR,SCT,0.00,WeatherDisplay:10.37,2013-02-26 23:10:00,
2013-02-26 18:15:00,34.5,28.3,29.85,SE,130,4.9,5.8,78,0.00,CLR,SCT,0.00,WeatherDisplay:10.37,2013-02-26 23:15:00,
2013-02-26 18:20:00,34.4,28.2,29.85,ESE,116,1.9,3.5,78,0.00,CLR,SCT,0.00,WeatherDisplay:10.37,2013-02-26 23:20:00,
2013-02-26 18:25:00,34.4,28.6,29.85,NNE,31,3.6,4.0,79,0.00,CLR,SCT,0.00,WeatherDisplay:10.37,2013-02-26 23:25:00,
2013-02-26 18:30:00,34.3,28.5,29.86,ESE,116,2.1,6.0,79,0.00,CLR,SCT,0.00,WeatherDisplay:10.37,2013-02-26 23:30:00,
2013-02-26 18:35:00,34.3,28.2,29.87,East,96,3.7,8.1,78,0.00,CLR,SCT,0.00,WeatherDisplay:10.37,2013-02-26 23:35:00,
2013-02-26 18:40:00,34.3,28.2,29.86,East,96,2.6,4.6,78,0.00,CLR,SCT,0.00,WeatherDisplay:10.37,2013-02-26 23:40:00,
2013-02-26 18:45:00,34.3,27.8,29.86,SE,137,4.4,5.8,77,0.00,CLR,SCT,0.00,WeatherDisplay:10.37,2013-02-26 23:45:00,
2013-02-26 18:50:00,34.3,27.8,29.87,East,95,3.8,5.8,77,0.00,CLR,SCT,0.00,WeatherDisplay:10.37,2013-02-26 23:50:00,
2013-02-26 18:55:00,34.2,27.7,29.86,SE,142,4.8,5.8,77,0.00,CLR,SCT,0.00,WeatherDisplay:10.37,2013-02-26 23:55:00,
2013-02-26 19:00:00,34.1,27.3,29.86,NE,46,3.0,6.0,76,0.00,CLR,SCT,0.00,WeatherDisplay:10.37,2013-02-27 00:00:00,
2013-02-26 19:05:00,34.1,26.7,29.86,ESE,104,4.4,6.9,74,0.00,CLR,SCT,0.00,WeatherDisplay:10.37,2013-02-27 00:05:00,
2013-02-26 19:10:00,34.1,26.7,29.85,ESE,121,4.0,6.0,74,0.00,CLR,SCT,0.00,WeatherDisplay:10.37,2013-02-27 00:10:00,
2013-02-26 19:15:00,34.0,25.9,29.84,ENE,76,6.3,10.4,72,0.00,CLR,SCT,0.00,WeatherDisplay:10.37,2013-02-27 00:15:00,
2013-02-26 19:20:00,34.0,25.9,29.84,NE,51,5.4,8.1,72,0.00,CLR,SCT,0.00,WeatherDisplay:10.37,2013-02-27 00:20:00,
2013-02-26 19:25:00,34.0,25.9,29.84,East,96,2.1,4.6,72,0.00,CLR,SCT,0.00,WeatherDisplay:10.37,2013-02-27 00:25:00,
2013-02-26 19:30:00,33.9,25.5,29.84,ENE,65,2.9,6.9,71,0.00,CLR,SCT,0.00,WeatherDisplay:10.37,2013-02-27 00:30:00,
2013-02-26 19:35:00,33.9,25.1,29.84,SE,135,5.4,7.0,70,0.00,CLR,SCT,0.00,WeatherDisplay:10.37,2013-02-27 00:35:00,
2013-02-26 19:40:00,33.8,25.0,29.84,East,91,1.4,3.5,70,0.00,CLR,SCT,0.00,WeatherDisplay:10.37,2013-02-27 00:40:00,
2013-02-26 19:45:00,33.8,24.7,29.83,ENE,61,4.5,6.9,69,0.00,CLR,SCT,0.00,WeatherDisplay:10.37,2013-02-27 00:45:00,
2013-02-26 19:50:00,33.9,24.8,29.84,East,92,4.0,6.9,69,0.00,CLR,SCT,0.00,WeatherDisplay:10.37,2013-02-27 00:50:00,
2013-02-26 19:55:00,33.8,24.7,29.84,North,5,1.7,5.8,69,0.00,CLR,SCT,0.00,WeatherDisplay:10.37,2013-02-27 00:55:00,
2013-02-26 20:00:00,33.7,25.0,29.84,East,88,3.1,5.8,70,0.00,CLR,SCT,0.00,WeatherDisplay:10.37,2013-02-27 01:00:00,
2013-02-26 20:05:00,33.7,25.0,29.84,ESE,111,2.6,4.6,70,0.00,CLR,SCT,0.00,WeatherDisplay:10.37,2013-02-27 01:05:00,
2013-02-26 20:10:00,33.7,25.0,29.84,SE,137,1.3,4.0,70,0.00,CLR,SCT,0.00,WeatherDisplay:10.37,2013-02-27 01:10:00,
2013-02-26 20:15:00,33.7,25.0,29.84,NE,45,3.8,10.4,70,0.00,CLR,SCT,0.00,WeatherDisplay:10.37,2013-02-27 01:15:00,
2013-02-26 20:20:00,33.7,24.6,29.83,ESE,106,4.9,6.9,69,0.00,CLR,SCT,0.00,WeatherDisplay:10.37,2013-02-27 01:20:00,
2013-02-26 20:25:00,33.7,25.0,29.83,ENE,67,5.4,5.8,70,0.00,CLR,SCT,0.00,WeatherDisplay:10.37,2013-02-27 01:25:00,
2013-02-26 20:30:00,33.6,24.9,29.82,NNE,24,4.6,5.8,70,0.00,CLR,SCT,0.00,WeatherDisplay:10.37,2013-02-27 01:30:00,
2013-02-26 20:35:00,33.6,25.2,29.82,NE,46,4.4,5.0,71,0.00,CLR,SCT,0.00,WeatherDisplay:10.37,2013-02-27 01:35:00,
2013-02-26 20:40:00,33.5,25.1,29.81,ESE,109,3.4,6.9,71,0.00,CLR,SCT,0.00,WeatherDisplay:10.37,2013-02-27 01:40:00,
2013-02-26 20:45:00,33.5,25.1,29.81,ESE,103,3.1,7.0,71,0.00,CLR,SCT,0.00,WeatherDisplay:10.37,2013-02-27 01:45:00,
2013-02-26 20:50:00,33.4,25.3,29.81,East,85,2.5,5.0,72,0.00,CLR,SCT,0.00,WeatherDisplay:10.37,2013-02-27 01:50:00,
2013-02-26 20:55:00,33.4,25.3,29.80,NE,53,5.0,14.0,72,0.00,CLR,SCT,0.00,WeatherDisplay:10.37,2013-02-27 01:55:00,
2013-02-26 21:00:00,33.2,25.8,29.79,East,92,6.1,11.5,74,0.00,CLR,SCT,0.00,WeatherDisplay:10.37,2013-02-27 02:00:00,
2013-02-26 21:05:00,33.0,26.3,29.79,South,188,1.0,4.6,76,0.00,CLR,SCT,0.00,WeatherDisplay:10.37,2013-02-27 02:05:00,
2013-02-26 21:10:00,32.9,26.5,29.79,ESE,107,3.8,5.8,77,0.00,CLR,SCT,0.00,WeatherDisplay:10.37,2013-02-27 02:10:00,
2013-02-26 21:15:00,32.8,26.4,29.79,SE,126,3.7,11.5,77,0.00,CLR,SCT,0.00,WeatherDisplay:10.37,2013-02-27 02:15:00,
2013-02-26 21:20:00,32.8,26.7,29.79,ESE,111,2.6,4.0,78,0.00,CLR,SCT,0.00,WeatherDisplay:10.37,2013-02-27 02:20:00,
2013-02-26 21:25:00,32.6,26.8,29.78,SSE,148,3.0,6.9,79,0.00,CLR,SCT,0.00,WeatherDisplay:10.37,2013-02-27 02:25:00,
2013-02-26 21:30:00,32.6,26.8,29.78,ESE,111,3.9,8.1,79,0.00,CLR,SCT,0.00,WeatherDisplay:10.37,2013-02-27 02:30:00,
2013-02-26 21:35:00,32.5,27.0,29.77,ESE,122,3.8,10.4,80,0.00,CLR,SCT,0.00,WeatherDisplay:10.37,2013-02-27 02:35:00,
2013-02-26 21:40:00,32.6,26.8,29.76,ESE,107,5.7,7.0,79,0.00,CLR,SCT,0.00,WeatherDisplay:10.37,2013-02-27 02:40:00,
2013-02-26 21:45:00,32.5,27.0,29.76,North,9,4.7,5.8,80,0.00,CLR,SCT,0.00,WeatherDisplay:10.37,2013-02-27 02:45:00,
2013-02-26 21:50:00,32.5,26.7,29.76,ENE,74,3.7,8.0,79,0.00,CLR,SCT,0.00,WeatherDisplay:10.37,2013-02-27 02:50:00,
2013-02-26 21:55:00,32.5,27.0,29.76,South,169,2.3,2.3,80,0.00,CLR,SCT,0.00,WeatherDisplay:10.37,2013-02-27 02:55:00,
2013-02-26 22:00:00,32.5,26.7,29.76,East,88,5.1,8.1,79,0.00,CLR,SCT,0.00,WeatherDisplay:10.37,2013-02-27 03:00:00,
2013-02-26 22:05:00,32.5,26.7,29.75,East,87,3.7,11.5,79,0.00,CLR,SCT,0.00,WeatherDisplay:10.37,2013-02-27 03:05:00,
2013-02-26 22:10:00,32.4,26.9,29.74,NE,35,6.1,11.5,80,0.00,CLR,SCT,0.00,WeatherDisplay:10.37,2013-02-27 03:10:00,
2013-02-26 22:15:00,32.4,26.9,29.74,ESE,107,4.3,8.1,80,0.00,CLR,SCT,0.00,WeatherDisplay:10.37,2013-02-27 03:15:00,
2013-02-26 22:20:00,32.3,26.8,29.75,East,96,5.5,10.4,80,0.00,CLR,SCT,0.00,WeatherDisplay:10.37,2013-02-27 03:20:00,
2013-02-26 22:25:00,32.3,27.1,29.74,East,97,6.9,11.5,81,0.00,CLR,SCT,0.00,WeatherDisplay:10.37,2013-02-27 03:25:00,
2013-02-26 22:30:00,32.3,27.4,29.74,North,5,5.6,9.2,82,0.00,CLR,SCT,0.00,WeatherDisplay:10.37,2013-02-27 03:30:00,
2013-02-26 22:35:00,32.1,27.2,29.73,SE,132,3.6,11.5,82,0.00,CLR,SCT,0.00,WeatherDisplay:10.37,2013-02-27 03:35:00,
2013-02-26 22:40:00,32.1,27.5,29.73,SE,134,6.1,9.2,83,0.00,CLR,SCT,0.00,WeatherDisplay:10.37,2013-02-27 03:40:00,
2013-02-26 22:45:00,32.0,27.4,29.74,ESE,115,4.0,6.9,83,0.00,CLR,SCT,0.00,WeatherDisplay:10.37,2013-02-27 03:45:00,
2013-02-26 22:50:00,32.1,27.8,29.74,ESE,113,3.1,5.8,84,0.00,CLR,SCT,0.00,WeatherDisplay:10.37,2013-02-27 03:50:00,
2013-02-26 22:55:00,32.0,28.3,29.74,ESE,110,4.2,6.9,86,0.00,CLR,SCT,0.00,WeatherDisplay:10.37,2013-02-27 03:55:00,
2013-02-26 23:00:00,31.9,28.2,29.73,East,79,2.8,8.1,86,0.00,CLR,SCT,0.00,WeatherDisplay:10.37,2013-02-27 04:00:00,
2013-02-26 23:05:00,31.8,28.4,29.73,ESE,116,4.7,6.0,87,0.00,CLR,SCT,0.00,WeatherDisplay:10.37,2013-02-27 04:05:00,
2013-02-26 23:10:00,31.8,28.7,29.73,NE,39,3.1,8.1,88,0.01,RA,SCT,0.01,WeatherDisplay:10.37,2013-02-27 04:10:00,
2013-02-26 23:15:00,31.7,28.6,29.72,NE,42,2.8,11.5,88,0.01,RA,SCT,0.01,WeatherDisplay:10.37,2013-02-27 04:15:00,
2013-02-26 23:20:00,31.7,28.8,29.72,NE,34,8.0,10.4,89,0.02,RA,SCT,0.02,WeatherDisplay:10.37,2013-02-27 04:20:00,
2013-02-26 23:25:00,31.7,29.1,29.71,ESE,111,5.2,10.4,90,0.03,RA,SCT,0.03,WeatherDisplay:10.37,2013-02-27 04:25:00,
2013-02-26 23:30:00,31.6,29.3,29.70,ESE,117,4.2,9.0,91,0.03,RA,SCT,0.03,WeatherDisplay:10.37,2013-02-27 04:30:00,
2013-02-26 23:35:00,31.5,29.2,29.70,ENE,66,4.3,6.9,91,0.03,CLR,SCT,0.03,WeatherDisplay:10.37,2013-02-27 04:35:00,
2013-02-26 23:40:00,31.5,29.2,29.70,NE,53,4.7,5.8,91,0.04,RA,SCT,0.04,WeatherDisplay:10.37,2013-02-27 04:40:00,
2013-02-26 23:45:00,31.5,29.4,29.69,East,80,3.8,5.8,92,0.04,RA,SCT,0.04,WeatherDisplay:10.37,2013-02-27 04:45:00,
2013-02-26 23:50:00,31.5,29.4,29.67,South,172,7.8,12.7,92,0.04,CLR,SCT,0.04,WeatherDisplay:10.37,2013-02-27 04:50:00,
2013-02-26 23:55:00,31.5,29.4,29.66,East,95,5.3,6.9,92,0.04,CLR,SCT,0.04,WeatherDisplay:10.37,2013-02-27 04:55:00,